Location: Poughquag
(41.6090°N, 73.6820°W)
Time: 06:36:45
(UTC-04:00)

Hubble Space Telescope - Visible Passes

Search period start: 18 July 2018 00:00
Search period end: 28 July 2018 00:00
Orbit: 537 x 541 km, 28.5° (Epoch: 17 July)

Date Brightness Start Highest point End Pass type
(mag) Time Alt. Az. Time Alt. Az. Time Alt. Az.
18 Jul 3.0 03:56:28 11° SSE 03:56:28 11° SSE 03:57:19 10° SSE visible
19 Jul 3.1 03:46:41 11° SSE 03:46:41 11° SSE 03:47:11 10° SSE visible
21 Jul 2.9 05:04:25 10° SSW 05:04:56 10° SSW 05:05:27 10° S visible
